This demonstration page uses our WeatherBlox Daily Observations layout. Learn more.

Left ArrowRight Arrow

Hourly Observations for December 7, 2019

Temp ( °F °C ) Dew Point ( °F °C ) Humidity (%) Winds ( mph kmh ) Pressure ( in mb ) Visibility ( mi km ) Precip ( " mm )
12:56 am 00:56 Clear 27 -3 19 -7 74 74 S 7 11 30.36 1028 10 16 0.00 0.00
1:56 am 01:56 Clear 28 -2 21 -6 74 74 S 7 11 30.35 1028 10 16 0.00 0.00
2:56 am 02:56 Clear 28 -2 21 -6 74 74 S 8 13 30.33 1027 10 16 0.00 0.00
3:56 am 03:56 Clear 28 -2 21 -6 74 74 SSE 8 13 30.31 1026 10 16 0.00 0.00
4:56 am 04:56 Clear 28 -2 21 -6 74 74 S 8 13 30.29 1026 10 16 0.00 0.00
5:56 am 05:56 Clear 28 -2 21 -6 74 74 S 6 9 30.29 1026 10 16 0.00 0.00
6:56 am 06:56 Clear 28 -2 21 -6 74 74 SSE 8 13 30.28 1025 10 16 0.00 0.00
7:56 am 07:56 Sunny 28 -2 21 -6 74 74 SSE 7 11 30.27 1025 10 16 0.00 0.00
8:56 am 08:56 Mostly Sunny 32 0 23 -5 69 69 S 10 17 30.25 1025 10 16 0.00 0.00
9:56 am 09:56 Mostly Sunny 36 2 25 -4 65 65 S 9 15 30.25 1024 10 16 0.00 0.00
10:56 am 10:56 Partly Cloudy 39 4 27 -3 61 61 S 8 13 30.22 1024 10 16 0.00 0.00
11:56 am 11:56 Mostly Sunny 43 6 27 -3 53 53 S 14 22 30.19 1022 10 16 0.00 0.00
12:56 pm 12:56 Sunny 48 9 27 -3 43 43 S 15 24 30.13 1020 10 16 0.00 0.00
1:56 pm 13:56 Sunny 52 11 27 -3 38 38 S 12 19 30.09 1019 10 16 0.00 0.00
2:56 pm 14:56 Sunny 52 11 27 -3 38 38 SSE 17 28 30.05 1018 10 16 0.00 0.00
3:56 pm 15:56 Partly Cloudy 52 11 23 -5 32 32 SSE 14 22 30.03 1017 10 16 0.00 0.00
4:56 pm 16:56 Partly Cloudy 50 10 25 -4 37 37 SSE 13 20 30.01 1016 10 16 0.00 0.00
5:56 pm 17:56 Partly Cloudy 46 8 27 -3 46 46 SE 10 17 30.00 1016 10 16 0.00 0.00
6:56 pm 18:56 Mostly Clear 46 8 27 -3 46 46 SSE 14 22 29.99 1016 10 16 0.00 0.00
7:56 pm 19:56 Clear 45 7 27 -3 49 49 SSE 13 20 29.97 1015 10 16 0.00 0.00
8:56 pm 20:56 Mostly Clear 43 6 27 -3 53 53 S 14 22 29.98 1015 10 16 0.00 0.00
9:56 pm 21:56 Partly Cloudy 41 5 27 -3 57 57 S 15 24 29.95 1014 10 16 0.00 0.00
10:56 pm 22:56 Partly Cloudy 41 5 27 -3 57 57 S 12 19 29.93 1014 10 16 0.00 0.00
11:56 pm 23:56 Partly Cloudy 41 5 27 -3 57 57 S 8 13 29.91 1013 10 16 0.00 0.00

Powered by AerisWeather